CZ-6A R/B, 64288

Orbit data source: Space-Track

CZ-6A R/B, 64288 is space debris in LEO originally from a launch on Thu, 05 Jun 2025 UTC launched from the Taiyaun Space Center, China (TSC). Debris objects in space refer to the collection of defunct objects orbiting the Earth. Examples of debris include non-operational satellites, rocket bodies, and fragments generated from explosions, collisions, or faulty payload assembly.

Loading next visibility...
Identifier
64288, 2025-121F
Orbit
LEO
Country
Flag of CNCN / PRC
Related business
Manufacturer
SAST
Mission
Spacecraft
Bus & Motor
CZ-6A STAGE 2, YF-115
Mass
~6,000 kg wet, ~6,000 kg dry
Launch date (UTC)
2025-06-05 (11 months ago)
Launch vehicle
Unknown
Launch site
Taiyaun Space Center, China (TSC)
Object type
Payload
Rocket body
Debris
Shape & HBR
Unknown shape, 5.5 m
Radar Cross Section
Large (>1 m²)

Expand to show TLE details & history
Last TLE update: 8 hours ago

TLE from 8 hours ago
0 CZ-6A R/B
1 64288U 25121F   26140.60841962  .00000075  00000-0  40544-4 0  9991
2 64288  86.5098  10.3276 0103816 127.9896 233.0710 13.94067915 48593
Epoch: 2026-05-20T14:36Z
TLE epoch observation values (Epoch: 2026-05-20T14:36:07.455Z)
Latitude
Longitude
-86.96899°
Altitude
963.4 km
Speed
7.347 km/s
True Right ascension
00h 41m 18s
True Declination
0° 00' 00"
Sunlit
Object was in daylight at epoch
Visualization orbit readout
Latitude
Unknown
Longitude
Unknown
Altitude
Unknown
Speed
Unknown
Apparent Right ascension
Unknown
Apparent Declination
Unknown
Sunlit
N/A
Visualization observer readout
Local Sidereal Time
07:40:54
Azimuth
Unknown
Elevation
Unknown
Doppler factor
Unknown
Orbital elements
Apogee altitude
987.106 km
Perigee altitude
835.751 km
Semi-major axis
7,289.566 km
Eccentricity
0.01038
Inclination
86.5098°
RAAN
10.3276°
Arg. of periapsis
127.9896°
True anomaly
232.12742°
Mean anomaly
233.071°
Eccentric anomaly
232.59847°
Mean motion
3.48731 °/min
Orbital period
103.23 mins
BSTAR
0.000040544
Loading maneuver chart data...
Computing Atmospheric mass density...
Loading historical data...
Loading historical data...
Loading historical data...
Loading historical data...
Loading historical data...
Loading historical data...
Loading historical data...

Documentation

Showing up to 5 results
|